Starlink 30203

operational
NORAD ID: 57498 Int'l Des: 2023-113 Owner: SPXS Country: US Constellation: starlink
LEOCIRCULAR

About Starlink 30203

Description loading...

Live Position

Loading 3D Globe...

Upcoming Passes

Altitude History

Altitude vs Time

uPlot chart will show altitude changes over time

Two-Line Element Set

1 57498U 23113D 25354.00395618 .00000210 00000-0 30638-4 0 9991
2 57498 43.0037 90.3090 0001419 269.4145 90.6535 15.02532118131695
Epoch: Dec 20, 2025 • Age: 12 hours

Current Status

Altitude 558.9 km
Velocity 7.58 km/s
Sub-Earth Point -0.26°S, 2.38°W
Launch Date Aug 7, 2023
Age 2.3 years
Type internet

Technical Details

Classification Payload
Mass 730.00 kg
Dry Mass 700.00 kg
Total Mass 730.00 kg
Length 0.30 m
Diameter 4.10 m
Span 29.00 m
Shape Box + pan
Manufacturer SPXS
Bus Type Starlink V2M
Phase Status In Orbit
Owner/State SPXS/US

Large Constellations

Loading constellations...